Location: Unspecified
(40.9447°N, 78.9903°W)
Time: 06:32:43
(UTC-04:00)

Cosmos 1674 - Pass Details

Date: 29 July 2021
Orbit: 492 x 516 km, 82.5° (Epoch: 15 September)

Event Time Altitude Azimuth Distance (km) Brightness Sun altitude
Rises 05:06:12 0° 333° (NNW) 2,645 6.4 -11.0°
Reaches altitude 10° 05:08:56 10° 313° (NW) 1,750 5.3 -10.6°
Maximum altitude 05:11:23 17° 273° (W) 1,381 4.4 -10.2°
Enters shadow 05:12:52 14° 246° (WSW) 1,521 4.4 -10.0°
